Volver al catálogo

OPS 4682 DEB

ActivoPO
NORAD 52783·DEBRIS·🇺🇸 United States

Lanzado Apr 3, 1965 desde Vandenberg Space Force Base

Loading…

Próximos Pases (próximas 24 horas)

TLE

ObsoletoSource: Space-Track

Época: Aug 29, 2026, 14:53 UTC

1 52783U 65027GZ  26241.62053507 -.00000142  00000-0 -52625-3 0  9990
2 52783  90.2407  10.0542 0029909 356.7632   3.3289 12.95674520544191

Sigue OPS 4682 DEB en tiempo real con AllMySat

Download on the App Store